Time,TemperatureF,DewpointF,PressureIn,WindDirection,WindDirectionDegrees,WindSpeedMPH,WindSpeedGustMPH,Humidity,HourlyPrecipIn,Conditions,Clouds,dailyrainin,SoftwareType,DateUTC
2013-09-13 00:13:00,50.0,45.0,30.12,NE,50,0.0,-999.0,83,-99.99,,,-99.99,,2013-09-13 05:13:00,
2013-09-13 00:22:00,50.0,45.0,30.12,NE,50,0.0,-999.0,84,-99.99,,,-99.99,,2013-09-13 05:22:00,
2013-09-13 00:43:00,49.0,45.0,30.13,NE,50,0.0,-999.0,85,-99.99,,,-99.99,,2013-09-13 05:43:00,
2013-09-13 00:53:00,49.0,45.0,30.13,NE,50,0.0,-999.0,86,-99.99,,,-99.99,,2013-09-13 05:53:00,
2013-09-13 01:12:00,49.0,45.0,30.13,NE,50,0.0,-999.0,87,-99.99,,,-99.99,,2013-09-13 06:12:00,
2013-09-13 01:22:00,48.0,44.0,30.13,NE,50,0.0,-999.0,87,-99.99,,,-99.99,,2013-09-13 06:22:00,
2013-09-13 01:52:00,47.0,44.0,30.14,NE,50,0.0,-999.0,89,-99.99,,,-99.99,,2013-09-13 06:52:00,
2013-09-13 02:11:00,47.0,44.0,30.14,NE,50,0.0,-999.0,89,-99.99,,,-99.99,,2013-09-13 07:11:00,
2013-09-13 02:22:00,47.0,44.0,30.15,NE,50,0.0,-999.0,90,-99.99,,,-99.99,,2013-09-13 07:22:00,
2013-09-13 02:42:00,46.0,43.0,30.15,NE,50,0.0,-999.0,90,-99.99,,,-99.99,,2013-09-13 07:42:00,
2013-09-13 02:52:00,47.0,45.0,30.15,NE,50,0.0,-999.0,91,-99.99,,,-99.99,,2013-09-13 07:52:00,
2013-09-13 03:11:00,46.0,43.0,30.15,NE,50,0.0,-999.0,90,-99.99,,,-99.99,,2013-09-13 08:11:00,
2013-09-13 03:22:00,45.0,42.0,30.16,NE,50,0.0,-999.0,90,-99.99,,,-99.99,,2013-09-13 08:22:00,
2013-09-13 03:42:00,45.0,43.0,30.16,NE,50,0.0,-999.0,91,-99.99,,,-99.99,,2013-09-13 08:42:00,
2013-09-13 03:52:00,45.0,43.0,30.15,NE,50,0.0,-999.0,91,-99.99,,,-99.99,,2013-09-13 08:52:00,
2013-09-13 04:12:00,44.0,42.0,30.15,NE,50,0.0,-999.0,91,-99.99,,,-99.99,,2013-09-13 09:12:00,
2013-09-13 04:21:00,44.0,42.0,30.15,NE,50,0.0,-999.0,91,-99.99,,,-99.99,,2013-09-13 09:21:00,
2013-09-13 04:43:00,43.0,41.0,30.14,NE,50,0.0,-999.0,91,-99.99,,,-99.99,,2013-09-13 09:43:00,
2013-09-13 04:53:00,43.0,41.0,30.14,NE,50,0.0,-999.0,92,-99.99,,,-99.99,,2013-09-13 09:53:00,
2013-09-13 05:13:00,43.0,41.0,30.15,NE,50,0.0,-999.0,92,-99.99,,,-99.99,,2013-09-13 10:13:00,
2013-09-13 05:23:00,42.0,40.0,30.15,NE,50,0.0,-999.0,92,-99.99,,,-99.99,,2013-09-13 10:23:00,
2013-09-13 05:42:00,42.0,40.0,30.16,NE,50,0.0,-999.0,92,-99.99,,,-99.99,,2013-09-13 10:42:00,
2013-09-13 05:53:00,41.0,39.0,30.16,NE,50,0.0,-999.0,92,-99.99,,,-99.99,,2013-09-13 10:53:00,
2013-09-13 06:12:00,41.0,39.0,30.16,NE,50,0.0,-999.0,92,-99.99,,,-99.99,,2013-09-13 11:12:00,
2013-09-13 06:22:00,41.0,39.0,30.16,NE,50,0.0,-999.0,93,-99.99,,,-99.99,,2013-09-13 11:22:00,
2013-09-13 06:42:00,41.0,39.0,30.16,NE,50,0.0,-999.0,93,-99.99,,,-99.99,,2013-09-13 11:42:00,
2013-09-13 06:52:00,40.0,38.0,30.16,NE,50,0.0,-999.0,93,-99.99,,,-99.99,,2013-09-13 11:52:00,
2013-09-13 07:12:00,40.0,38.0,30.17,NE,50,0.0,-999.0,93,-99.99,,,-99.99,,2013-09-13 12:12:00,
2013-09-13 07:22:00,40.0,38.0,30.18,NE,50,0.0,-999.0,93,-99.99,,,-99.99,,2013-09-13 12:22:00,
2013-09-13 07:42:00,39.0,37.0,30.19,NW,322,0.0,-999.0,93,-99.99,,,-99.99,,2013-09-13 12:42:00,
2013-09-13 07:52:00,39.0,37.0,30.19,SE,144,0.0,-999.0,93,-99.99,,,-99.99,,2013-09-13 12:52:00,
2013-09-13 08:11:00,40.0,38.0,30.20,SE,144,0.0,-999.0,94,-99.99,,,-99.99,,2013-09-13 13:11:00,
2013-09-13 08:21:00,40.0,39.0,30.20,SE,144,0.0,-999.0,95,-99.99,,,-99.99,,2013-09-13 13:21:00,
2013-09-13 08:52:00,45.0,44.0,30.20,SE,144,0.0,-999.0,96,-99.99,,,-99.99,,2013-09-13 13:52:00,
2013-09-13 09:11:00,48.0,46.0,30.20,SE,144,0.0,-999.0,94,-99.99,,,-99.99,,2013-09-13 14:11:00,
2013-09-13 09:22:00,49.0,47.0,30.20,SE,144,0.0,-999.0,93,-99.99,,,-99.99,,2013-09-13 14:22:00,
2013-09-13 09:42:00,51.0,48.0,30.20,SE,144,0.0,-999.0,91,-99.99,,,-99.99,,2013-09-13 14:42:00,
2013-09-13 09:52:00,53.0,49.0,30.19,South,181,0.0,-999.0,86,-99.99,,,-99.99,,2013-09-13 14:52:00,
2013-09-13 10:11:00,56.0,47.0,30.19,SSE,149,0.0,-999.0,72,-99.99,,,-99.99,,2013-09-13 15:11:00,
2013-09-13 10:22:00,57.0,45.0,30.20,WSW,246,2.0,-999.0,65,-99.99,,,-99.99,,2013-09-13 15:22:00,
2013-09-13 10:43:00,58.0,44.0,30.20,SE,132,1.0,-999.0,59,-99.99,,,-99.99,,2013-09-13 15:43:00,
2013-09-13 10:53:00,59.0,44.0,30.20,South,180,2.0,-999.0,57,-99.99,,,-99.99,,2013-09-13 15:53:00,
2013-09-13 11:12:00,59.0,44.0,30.19,SSW,193,1.0,-999.0,57,-99.99,,,-99.99,,2013-09-13 16:12:00,
2013-09-13 11:24:00,59.0,43.0,30.20,ESE,107,1.0,-999.0,55,-99.99,,,-99.99,,2013-09-13 16:24:00,
2013-09-13 11:43:00,60.0,43.0,30.20,East,98,3.0,-999.0,54,-99.99,,,-99.99,,2013-09-13 16:43:00,
2013-09-13 11:54:00,62.0,43.0,30.19,ESE,112,2.0,-999.0,49,-99.99,,,-99.99,,2013-09-13 16:54:00,
2013-09-13 12:13:00,63.0,42.0,30.19,SW,216,4.0,-999.0,47,-99.99,,,-99.99,,2013-09-13 17:13:00,
2013-09-13 12:24:00,65.0,43.0,30.19,West,263,2.0,-999.0,44,-99.99,,,-99.99,,2013-09-13 17:24:00,
2013-09-13 12:33:00,65.0,43.0,30.19,West,263,2.0,-999.0,44,-99.99,,,-99.99,,2013-09-13 17:33:00,
2013-09-13 12:44:00,65.0,43.0,30.19,West,263,2.0,-999.0,44,-99.99,,,-99.99,,2013-09-13 17:44:00,
2013-09-13 13:12:00,66.0,40.0,30.16,South,182,3.0,-999.0,38,-99.99,,,-99.99,,2013-09-13 18:12:00,
2013-09-13 13:22:00,66.0,41.0,30.16,SE,140,3.0,-999.0,40,-99.99,,,-99.99,,2013-09-13 18:22:00,
2013-09-13 13:42:00,66.0,40.0,30.15,SW,225,4.0,-999.0,38,-99.99,,,-99.99,,2013-09-13 18:42:00,
2013-09-13 13:52:00,65.0,40.0,30.15,SW,227,3.0,-999.0,40,-99.99,,,-99.99,,2013-09-13 18:52:00,
2013-09-13 14:11:00,66.0,40.0,30.14,WSW,252,3.0,-999.0,39,-99.99,,,-99.99,,2013-09-13 19:11:00,
2013-09-13 14:22:00,68.0,39.0,30.13,ESE,104,3.0,-999.0,35,-99.99,,,-99.99,,2013-09-13 19:22:00,
2013-09-13 14:43:00,68.0,40.0,30.13,SE,128,5.0,-999.0,36,-99.99,,,-99.99,,2013-09-13 19:43:00,
2013-09-13 14:52:00,67.0,40.0,30.12,South,169,3.0,-999.0,37,-99.99,,,-99.99,,2013-09-13 19:52:00,
2013-09-13 15:02:00,67.0,40.0,30.12,South,169,3.0,-999.0,37,-99.99,,,-99.99,,2013-09-13 20:02:00,
2013-09-13 15:11:00,67.0,40.0,30.12,South,169,3.0,-999.0,37,-99.99,,,-99.99,,2013-09-13 20:11:00,
2013-09-13 15:22:00,69.0,41.0,30.11,SE,139,3.0,-999.0,36,-99.99,,,-99.99,,2013-09-13 20:22:00,
2013-09-13 15:52:00,69.0,39.0,30.10,SSE,156,1.0,-999.0,34,-99.99,,,-99.99,,2013-09-13 20:52:00,
2013-09-13 16:12:00,70.0,40.0,30.09,SSE,155,2.0,-999.0,33,-99.99,,,-99.99,,2013-09-13 21:12:00,
2013-09-13 16:22:00,70.0,39.0,30.09,ESE,104,3.0,-999.0,32,-99.99,,,-99.99,,2013-09-13 21:22:00,
2013-09-13 16:54:00,70.0,39.0,30.08,NE,42,3.0,-999.0,32,-99.99,,,-99.99,,2013-09-13 21:54:00,
2013-09-13 17:13:00,70.0,40.0,30.08,East,94,2.0,-999.0,33,-99.99,,,-99.99,,2013-09-13 22:13:00,
2013-09-13 17:24:00,70.0,40.0,30.08,South,185,1.0,-999.0,33,-99.99,,,-99.99,,2013-09-13 22:24:00,
2013-09-13 17:43:00,69.0,39.0,30.07,East,81,2.0,-999.0,34,-99.99,,,-99.99,,2013-09-13 22:43:00,
2013-09-13 17:53:00,70.0,40.0,30.07,East,89,2.0,-999.0,33,-99.99,,,-99.99,,2013-09-13 22:53:00,
2013-09-13 18:12:00,69.0,39.0,30.07,SE,132,1.0,-999.0,34,-99.99,,,-99.99,,2013-09-13 23:12:00,
2013-09-13 18:22:00,69.0,39.0,30.07,SE,134,1.0,-999.0,34,-99.99,,,-99.99,,2013-09-13 23:22:00,
2013-09-13 18:52:00,68.0,41.0,30.07,SE,126,0.0,-999.0,37,-99.99,,,-99.99,,2013-09-13 23:52:00,
2013-09-13 19:12:00,67.0,41.0,30.07,SE,126,0.0,-999.0,38,-99.99,,,-99.99,,2013-09-14 00:12:00,
2013-09-13 19:22:00,67.0,42.0,30.06,SE,126,1.0,-999.0,40,-99.99,,,-99.99,,2013-09-14 00:22:00,
2013-09-13 19:42:00,66.0,44.0,30.06,SE,126,0.0,-999.0,45,-99.99,,,-99.99,,2013-09-14 00:42:00,
2013-09-13 19:52:00,64.0,44.0,30.06,SE,126,0.0,-999.0,49,-99.99,,,-99.99,,2013-09-14 00:52:00,
2013-09-13 20:11:00,62.0,46.0,30.06,SE,126,0.0,-999.0,55,-99.99,,,-99.99,,2013-09-14 01:11:00,
2013-09-13 20:22:00,60.0,46.0,30.05,SE,126,0.0,-999.0,59,-99.99,,,-99.99,,2013-09-14 01:22:00,
2013-09-13 20:42:00,58.0,45.0,30.06,SE,126,0.0,-999.0,63,-99.99,,,-99.99,,2013-09-14 01:42:00,
2013-09-13 20:52:00,56.0,45.0,30.06,SE,126,0.0,-999.0,67,-99.99,,,-99.99,,2013-09-14 01:52:00,
2013-09-13 21:12:00,55.0,45.0,30.06,SE,126,0.0,-999.0,68,-99.99,,,-99.99,,2013-09-14 02:12:00,
2013-09-13 21:22:00,53.0,45.0,30.06,SE,126,0.0,-999.0,73,-99.99,,,-99.99,,2013-09-14 02:22:00,
2013-09-13 21:42:00,52.0,44.0,30.05,SE,126,0.0,-999.0,75,-99.99,,,-99.99,,2013-09-14 02:42:00,
2013-09-13 21:52:00,51.0,44.0,30.06,SE,126,0.0,-999.0,78,-99.99,,,-99.99,,2013-09-14 02:52:00,
2013-09-13 22:12:00,50.0,44.0,30.06,SE,126,0.0,-999.0,80,-99.99,,,-99.99,,2013-09-14 03:12:00,
2013-09-13 22:22:00,49.0,43.0,30.05,SE,126,0.0,-999.0,81,-99.99,,,-99.99,,2013-09-14 03:22:00,
2013-09-13 22:54:00,48.0,43.0,30.05,SE,126,0.0,-999.0,84,-99.99,,,-99.99,,2013-09-14 03:54:00,
2013-09-13 23:14:00,48.0,44.0,30.04,SE,126,0.0,-999.0,85,-99.99,,,-99.99,,2013-09-14 04:14:00,
2013-09-13 23:24:00,47.0,43.0,30.04,SE,126,0.0,-999.0,85,-99.99,,,-99.99,,2013-09-14 04:24:00,
2013-09-13 23:43:00,47.0,43.0,30.04,SE,126,0.0,-999.0,87,-99.99,,,-99.99,,2013-09-14 04:43:00,
2013-09-13 23:54:00,46.0,42.0,30.03,SE,126,0.0,-999.0,87,-99.99,,,-99.99,,2013-09-14 04:54:00,